Location: Naloco
(16.5478°S, 37.1017°E)
Time: 02:00:11
(UTC+00:00)

Cosmos 1110 Rocket - Pass Details

Date: 13 August 2020
Orbit: 752 x 781 km, 74.0° (Epoch: 23 September)

Event Time Altitude Azimuth Distance (km) Brightness Sun altitude
Rises 16:31:04 0° 343° (NNW) 3,231 7.6 -16.9°
Reaches altitude 10° 16:33:27 10° 340° (NNW) 2,306 6.9 -17.4°
Maximum altitude 16:38:40 71° 256° (WSW) 812 4.2 -18.7°
Drops below altitude 10° 16:43:54 10° 172° (S) 2,309 6.3 -19.9°
Enters shadow 16:45:58 - 170° (S) 3,113 7.0 -20.4°
